This demonstration page uses our WeatherBlox Daily Observations layout. Learn more.

Left ArrowRight Arrow

44.8408, -93.29828

Hourly Observations for September 18, 2017

Temp ( °F °C ) Dew Point ( °F °C ) Humidity (%) Winds ( mph kmh ) Pressure ( in mb ) Visibility ( mi km ) Precip ( " mm )
12:53 am 00:53 Cloudy 56 13.3 51 10.6 84 84 E 3 6 30.12 1020 10 16 0.00 0.00
1:53 am 01:53 Cloudy 56 13.3 52 11.1 87 87 NNE 5 7 30.11 1020 10 16 0.00 0.03
2:53 am 02:53 Cloudy 57 13.9 50 10 78 78 Calm 30.10 1019 10 16 0.00 0.00
3:53 am 03:53 Cloudy 57 13.9 50 10 78 78 SE 3 6 30.09 1019 10 16 0.00 0.00
4:53 am 04:53 Mostly Cloudy 57 13.9 52 11.1 83 83 SE 7 11 30.07 1018 10 16 0.00 0.03
5:53 am 05:53 Mostly Cloudy 57 13.9 52 11.1 83 83 SSE 6 9 30.06 1018 10 16 0.00 0.00
6:53 am 06:53 Mostly Cloudy 57 13.9 52 11.1 83 83 SE 7 11 30.06 1018 10 16 0.00 0.00
7:53 am 07:53 Cloudy 57 13.9 52 11.1 83 83 SSE 10 17 30.10 1019 10 16 0.00 0.00
8:53 am 08:53 Cloudy 57 13.9 50 10 78 78 SSE 14 22 30.09 1019 10 16 0.00 0.00
9:53 am 09:53 Cloudy with Light Rain 55 12.8 53 11.7 93 93 SSE 10 17 30.06 1018 9 14 0.03 0.76
10:53 am 10:53 Cloudy with Rain 55 12.8 53 11.7 93 93 SSE 12 19 30.09 1019 8 13 0.09 2.29
11:53 am 11:53 Cloudy with Light Rain 56 13.3 54 12.2 93 93 SE 14 22 30.06 1018 8 13 0.05 1.27
12:53 pm 12:53 Cloudy with Light Rain 57 13.9 54 12.2 90 90 SSE 12 19 30.07 1018 9 14 0.00 0.03
1:53 pm 13:53 Cloudy with Light Rain 55 12.8 54 12.2 96 96 SSE 10 17 30.04 1017 8 13 0.07 1.78
2:53 pm 14:53 Cloudy with Rain 55 12.8 54 12.2 96 96 SE 13 20 29.99 1016 7 11 0.10 2.54
3:18 pm 15:18 Cloudy with Light Rain 56 13.3 55 12.8 97 97 SE 13 20 30.00 1016 9 14 0.03 0.76
3:53 pm 15:53 Cloudy 56 13.3 55 12.8 97 97 SE 9 15 29.99 1016 10 16 0.03 0.76
4:02 pm 16:02 Cloudy 56 13.3 55 12.8 97 97 SE 10 17 30.00 1016 10 16 0.00 0.00
4:25 pm 16:25 Cloudy 56 13.3 55 12.8 97 97 SE 13 20 30.00 1016 10 16 0.00 0.00
4:35 pm 16:35 Cloudy 56 13.3 54 12.2 93 93 SE 13 20 30.00 1016 10 16 0.00 0.00
4:53 pm 16:53 Cloudy 57 13.9 55 12.8 93 93 ESE 13 20 29.99 1016 10 16 0.00 0.00
5:10 pm 17:10 Cloudy 57 13.9 54 12.2 90 90 ESE 13 20 29.94 1014 10 16 0.00 0.00
5:53 pm 17:53 Cloudy 57 13.9 54 12.2 90 90 ESE 12 19 29.98 1015 10 16 0.00 0.00
6:53 pm 18:53 Cloudy 57 13.9 55 12.8 93 93 ESE 12 19 29.96 1015 10 16 0.00 0.00
7:06 pm 19:06 Cloudy 57 13.9 55 12.8 93 93 ESE 12 19 29.94 1014 10 16 0.00 0.00
7:53 pm 19:53 Cloudy 58 14.4 56 13.3 93 93 ESE 10 17 29.96 1015 10 16 0.00 0.00
8:53 pm 20:53 Cloudy 59 15 57 13.9 93 93 SE 10 17 29.96 1015 10 16 0.00 0.00
9:26 pm 21:26 Cloudy 59 15 57 13.9 93 93 SE 7 11 29.94 1014 10 16 0.00 0.00
9:49 pm 21:49 Cloudy 59 15 57 14 94 94 SE 8 13 29.94 1014 10 16 0.00 0.00
9:53 pm 21:53 Cloudy 59 15 57 13.9 93 93 SE 9 15 29.97 1015 10 16 0.00 0.00
10:18 pm 22:18 Cloudy 59 15 57 13.9 93 93 SE 9 15 29.94 1014 10 16 0.00 0.00
10:25 pm 22:25 Cloudy 59 15 57 13.9 93 93 SE 9 15 29.94 1014 10 16 0.00 0.00
10:38 pm 22:38 Cloudy 59 15 57 13.9 93 93 SE 9 15 29.94 1014 10 16 0.00 0.00
10:53 pm 22:53 Cloudy 59 15 57 13.9 93 93 SE 10 17 29.97 1015 10 16 0.00 0.00
11:06 pm 23:06 Cloudy 59 15 57 13.9 93 93 SE 8 13 29.94 1014 10 16 0.00 0.00
11:53 pm 23:53 Cloudy 59 15 57 13.9 93 93 ESE 8 13 29.96 1015 10 16 0.00 0.00

Powered by AerisWeather